Location: Six Mile Lake
(44.9000°N, 79.7170°W)
Time: 05:48:17
(UTC-04:00)

EO-79 - Pass Details

Date: 02 July 2022
Orbit: 588 x 603 km, 98.0° (Epoch: 14 August)

Event Time Altitude Azimuth Distance (km) Brightness Sun altitude
Rises 01:58:26 0° 30° (NNE) 2,856 ? -21.6°
Reaches altitude 10° 02:01:17 10° 50° (NE) 1,950 ? -21.5°
Maximum altitude 02:04:05 17° 92° (E) 1,535 ? -21.4°
Enters shadow 02:05:22 15° 114° (ESE) 1,628 ? -21.4°
